Location: Arpaise
(41.0333°N, 14.7333°E)
Time: 01:37:39
(UTC+00:00)

SAR-Lupe-2 - Pass Details

Date: 05 July 2020
Orbit: 482 x 484 km, 98.1° (Epoch: 09 August)

Event Time Altitude Azimuth Distance (km) Brightness Sun altitude
Rises 20:06:00 0° 17° (NNE) 2,556 7.7 -13.8°
Reaches altitude 10° 20:08:06 10° 21° (NNE) 1,670 6.6 -14.1°
Maximum altitude 20:11:38 58° 101° (E) 567 3.6 -14.6°
Enters shadow 20:13:39 23° 174° (S) 1,056 4.8 -14.8°
